Location: Carri�res
(48.9069°N, 2.1792°E)
Time: 04:45:15
(UTC+00:00)

Meteor 2-10 Rocket - Pass Details

Date: 17 January 2021
Orbit: 733 x 885 km, 81.2° (Epoch: 26 February)

Event Time Altitude Azimuth Distance (km) Brightness Sun altitude
Rises 17:55:46 0° 350° (N) 3,448 6.8 -14.4°
Reaches altitude 10° 17:58:19 10° 355° (N) 2,487 6.0 -14.9°
Maximum altitude 18:03:51 55° 73° (ENE) 986 3.7 -15.7°
Drops below altitude 10° 18:09:07 10° 152° (SSE) 2,371 5.9 -16.6°
Sets 18:11:29 0° 156° (SSE) 3,273 6.6 -17.0°
